Date String (YYYY-MM-DD hh:mm:ss) UTC,Instrument flags,Ambient pressure (hPa),Sample flow (lpm),Bypass flow (lpm),Sample temperature (°C),Ambient temperature (°C),ASC tube jacket temperature (°C),LED temperature (°C),Box temperature (°C),Sample RH (%),Span deviation,Mass concentration (μg/m³),Mass concentration (μg/m³),Mass concentration (μg/m³)
DateTimeUTC,F1_M11,P_M11,Q1_M11,Q2_M11,T1_M11,T2_M11,T3_M11,T4_M11,T5_M11,U1_M11,ZSPAN_M11,X0_M11,X2_M11,X1_M11
2022-10-18 07:00:00,,0831.9,5.01,0.00,27.5,25.8,00.0,36.5,29.2,13.4,0002.1,0020.46,0007.99,0006.83
2022-10-18 07:01:00,,0831.9,5.01,0.00,27.5,25.8,00.0,36.5,29.2,13.4,0001.7,0022.21,0008.08,0006.86
2022-10-18 07:02:00,,0832.0,4.99,0.00,27.5,25.8,00.0,36.5,29.2,13.4,0002.1,0022.90,0008.15,0006.86
2022-10-18 07:03:00,,0832.0,4.99,0.00,27.5,25.7,00.0,36.5,29.2,13.4,0002.1,0021.73,0008.10,0006.86
2022-10-18 07:04:00,,0832.0,5.00,0.00,27.5,25.7,00.0,36.4,29.2,13.4,0002.2,0020.02,0008.12,0006.87
2022-10-18 07:05:00,,0832.0,5.01,0.00,27.5,25.8,00.0,36.4,29.3,13.4,0001.7,0020.22,0008.20,0006.89
2022-10-18 07:06:00,,0832.0,5.00,0.00,27.5,25.7,00.0,36.4,29.2,13.4,0002.2,0021.27,0008.29,0006.92
2022-10-18 07:07:00,,0831.9,5.01,0.00,27.5,25.7,00.0,36.4,29.2,13.4,0002.8,0022.15,0008.33,0006.94
2022-10-18 07:08:00,,0831.9,5.01,0.00,27.5,25.7,00.0,36.4,29.2,13.4,0003.3,0021.83,0008.43,0006.95
2022-10-18 07:09:00,,0832.0,5.00,0.00,27.4,25.7,00.0,36.4,29.1,13.5,0003.5,0022.02,0008.51,0006.96
2022-10-18 07:10:00,,0832.0,4.99,0.00,27.4,25.7,00.0,36.4,29.1,13.5,0003.2,0022.38,0008.57,0006.98
2022-10-18 07:11:00,,0832.0,4.99,0.00,27.4,25.7,00.0,36.4,29.1,13.5,0003.0,0021.62,0008.56,0006.97
2022-10-18 07:12:00,,0831.9,5.01,0.00,27.4,25.7,00.0,36.4,29.1,13.5,0003.2,0019.96,0008.54,0006.97
2022-10-18 07:13:00,,0832.0,5.01,0.00,27.4,25.7,00.0,36.4,29.1,13.5,0002.5,0019.22,0008.55,0006.98
2022-10-18 07:14:00,,0832.0,5.01,0.00,27.4,25.7,00.0,36.3,29.1,13.5,0002.1,0018.90,0008.64,0006.99
2022-10-18 07:15:00,,0831.9,5.00,0.00,27.4,25.6,00.0,36.3,29.1,13.5,0001.7,0018.85,0008.62,0007.01
2022-10-18 07:16:00,,0831.9,5.00,0.00,27.4,25.6,00.0,36.3,29.1,13.5,0002.7,0019.12,0008.67,0007.04
2022-10-18 07:17:00,,0831.9,5.00,0.00,27.3,25.6,00.0,36.3,29.0,13.5,0002.4,0018.71,0008.74,0007.05
2022-10-18 07:18:00,,0831.9,4.99,0.00,27.3,25.6,00.0,36.3,29.0,13.5,0002.1,0018.32,0008.72,0007.06
2022-10-18 07:19:00,,0831.9,5.00,0.00,27.3,25.6,00.0,36.3,29.0,13.5,0001.7,0017.42,0008.62,0007.07
2022-10-18 07:20:00,,0831.9,5.00,0.00,27.3,25.6,00.0,36.3,29.0,13.5,0001.6,0017.02,0008.62,0007.09
2022-10-18 07:21:00,,0832.0,5.00,0.00,27.3,25.6,00.0,36.3,28.9,13.5,0001.4,0016.94,0008.61,0007.10
2022-10-18 07:22:00,,0831.9,5.01,0.00,27.3,25.6,00.0,36.3,29.0,13.6,0001.2,0018.13,0008.62,0007.11
2022-10-18 07:23:00,,0831.9,5.00,0.00,27.3,25.6,00.0,36.3,29.0,13.6,0001.2,0018.70,0008.58,0007.10
2022-10-18 07:24:00,,0831.9,5.00,0.00,27.3,25.6,00.0,36.2,28.9,13.5,0000.8,0018.47,0008.54,0007.11
2022-10-18 07:25:00,,0831.9,5.00,0.00,27.3,25.6,00.0,36.2,29.0,13.5,0000.6,0019.04,0008.49,0007.11
2022-10-18 07:26:00,,0831.9,5.00,0.00,27.3,25.5,00.0,36.2,29.0,13.6,0000.6,0018.75,0008.47,0007.12
2022-10-18 07:27:00,,0831.9,4.99,0.00,27.3,25.5,00.0,36.2,29.0,13.6,0000.3,0018.78,0008.44,0007.10
2022-10-18 07:28:00,,0832.0,4.99,0.00,27.2,25.5,00.0,36.2,28.9,13.6,0000.5,0018.22,0008.35,0007.06
2022-10-18 07:29:00,,0831.9,5.00,0.00,27.2,25.5,00.0,36.2,28.9,13.6,0000.4,0017.48,0008.30,0007.04
2022-10-18 07:30:00,,0831.9,5.01,0.00,27.2,25.5,00.0,36.2,29.0,13.6,0000.1,0018.27,0008.30,0007.03
2022-10-18 07:31:00,,0832.0,5.00,0.00,27.2,25.5,00.0,36.2,29.0,13.6,0000.1,0018.57,0008.28,0007.01
2022-10-18 07:32:00,,0832.0,4.99,0.00,27.2,25.5,00.0,36.2,28.9,13.6,0000.3,0019.25,0008.23,0006.99
2022-10-18 07:33:00,,0832.0,4.99,0.00,27.2,25.5,00.0,36.1,28.9,13.6,0001.0,0018.43,0008.19,0006.99
2022-10-18 07:34:00,,0832.1,5.01,0.00,27.2,25.5,00.0,36.1,28.9,13.6,0001.5,0017.56,0008.13,0006.98
2022-10-18 07:35:00,,0832.0,5.01,0.00,27.2,25.5,00.0,36.1,28.9,13.6,0001.5,0017.67,0008.12,0006.97
2022-10-18 07:36:00,,0832.0,5.00,0.00,27.2,25.4,00.0,36.1,28.9,13.6,0002.1,0016.95,0008.13,0006.98
2022-10-18 07:37:00,,0832.0,5.00,0.00,27.1,25.4,00.0,36.1,28.8,13.6,0002.6,0017.69,0008.11,0006.96
2022-10-18 07:38:00,,0832.0,4.99,0.00,27.1,25.4,00.0,36.1,28.9,13.6,0002.5,0017.93,0008.10,0006.94
2022-10-18 07:39:00,,0832.0,5.00,0.00,27.1,25.4,00.0,36.1,28.9,13.6,0002.1,0018.86,0008.08,0006.93
2022-10-18 07:40:00,,0832.0,5.00,0.00,27.1,25.4,00.0,36.1,28.8,13.6,0001.7,0019.61,0008.11,0006.93
2022-10-18 07:41:00,,0832.0,5.00,0.00,27.1,25.4,00.0,36.1,28.8,13.6,0002.2,0019.58,0008.15,0006.94
2022-10-18 07:42:00,,0831.9,5.00,0.00,27.1,25.4,00.0,36.1,28.8,13.7,0002.7,0019.35,0008.22,0006.96
2022-10-18 07:43:00,,0832.0,5.01,0.00,27.1,25.4,00.0,36.0,28.8,13.7,0003.3,0018.71,0008.23,0006.99
2022-10-18 07:44:00,,0832.1,5.00,0.00,27.1,25.4,00.0,36.0,28.8,13.7,0003.2,0018.95,0008.22,0006.99
2022-10-18 07:45:00,,0832.1,4.99,0.00,27.1,25.4,00.0,36.0,28.8,13.7,0003.0,0019.55,0008.28,0007.00
2022-10-18 07:46:00,,0832.1,4.99,0.00,27.1,25.4,00.0,36.0,28.8,13.7,0003.3,0020.21,0008.29,0006.98
2022-10-18 07:47:00,,0832.1,5.01,0.00,27.1,25.3,00.0,36.0,28.7,13.7,0003.5,0020.90,0008.29,0006.98
2022-10-18 07:48:00,,0832.2,5.01,0.00,27.0,25.3,00.0,36.0,28.7,13.7,0003.2,0019.92,0008.25,0006.96
2022-10-18 07:49:00,,0832.1,5.00,0.00,27.0,25.3,00.0,36.0,28.7,13.7,0003.4,0019.35,0008.28,0006.95
2022-10-18 07:50:00,,0832.1,5.00,0.00,27.0,25.3,00.0,36.0,28.7,13.7,0003.2,0018.24,0008.30,0006.97
2022-10-18 07:51:00,,0832.1,5.00,0.00,27.0,25.3,00.0,36.0,28.7,13.7,0003.5,0017.89,0008.33,0006.98
2022-10-18 07:52:00,,0832.1,5.00,0.00,27.0,25.3,00.0,36.0,28.7,13.7,0003.6,0018.03,0008.41,0007.00
2022-10-18 07:53:00,,0832.2,5.00,0.00,27.0,25.3,00.0,35.9,28.7,13.7,0003.6,0018.30,0008.36,0007.00
2022-10-18 07:54:00,,0832.1,4.99,0.00,27.0,25.3,00.0,35.9,28.7,13.7,0003.2,0019.23,0008.36,0006.98
2022-10-18 07:55:00,,0832.1,5.00,0.00,27.0,25.3,00.0,35.9,28.7,13.7,0002.8,0019.62,0008.38,0006.95
2022-10-18 07:56:00,,0832.1,5.00,0.00,27.0,25.3,00.0,35.9,28.7,13.7,0002.7,0019.91,0008.41,0006.95
2022-10-18 07:57:00,,0832.1,5.00,0.00,27.0,25.2,00.0,35.9,28.7,13.7,0003.0,0019.91,0008.41,0006.96
2022-10-18 07:58:00,,0832.1,5.00,0.00,26.9,25.2,00.0,35.9,28.6,13.7,0002.6,0020.47,0008.41,0006.96
2022-10-18 07:59:00,,0832.1,5.00,0.00,26.9,25.2,00.0,35.9,28.6,13.8,0002.7,0021.41,0008.43,0006.98
